Content
SEND FEEDBACK

Daily
Averages
Monthly
Summary
Canada

STRATFORD, ONTARIO


Home > North America > Canada > Ontario
Elevation: 1161 feet     Latitude: 43 24N     Longitude: 081 00W

WEATHER
 
SELECT A DAY
Number of Records: 193,729;   Date Range: 1/1/95 - 9/28/14
 
SHARE

PRINT THIS DATA

[ ← Previous Day ]
WEATHER ALMANAC - FEBRUARY 16, 2013
[ Next Day → ]
[ °C ]   °F
Weather ElementAverageHighLow
Temperature19.6 °F23 °F (12:00 pm)8.6 °F (11:00 pm)
Dewpoint13 °F17.6 °F (1:19 am)5 °F (2:00 pm)
Humidity75.8 %93 % (6:46 am)42 % (1:00 pm)
Barometer30.04 in30.09 in (1:04 am)29.99 in (3:00 pm)
Wind Speed6.2 mph15 mph (2:00 pm)
Weather ElementAverage
Visibility11.7 mi
Wind DirectionWSW (242.4 °)

Weather ElementTotal
Precipitation---
Heating Degree Days49.2 (Base 65)
Averaged from 35 records on February 16, 2013
WEATHER CONDITIONS BREAKOUT
WIND DIRECTION BREAKOUT
WEATHER BY HOUR - FEBRUARY 16, 2013
[ °C ]   °F
Local TimeTemperatureDewpointHumidityBarometerVisibilityWind DirectionWind SpeedGust SpeedPrecipitationEventsConditions
1:00 AM21.0 °F16.0 °F74 %30.08 in12.0 miWSW (250°)4.6 mph
1:00 AM21.2 °F15.8 °F80 %30.08 in12.0 miWSW (240°)5.8 mphSnowLight Snow Showers
1:04 AM21.2 °F15.8 °F80 %30.09 in6.0 miWSW (250°)4.6 mphSnowLight Snow Showers
1:19 AM21.2 °F17.6 °F86 %30.08 in2.0 miWSW (250°)3.5 mphSnowLight Snow Showers
1:27 AM21.2 °F17.6 °F86 %30.08 in12.0 miWSW (240°)3.5 mphSnowLight Snow Showers
2:00 AM21.2 °F17.6 °F86 %30.08 in15.0 miCalmSnowLight Snow Showers
2:53 AM21.2 °F17.6 °F86 %30.06 in15.0 miSSW (210°)4.6 mphMostly Cloudy
3:00 AM21.2 °F17.6 °F86 %30.06 in15.0 miSSW (210°)4.6 mphMostly Cloudy
3:50 AM21.2 °F17.6 °F86 %30.05 in15.0 miSSW (200°)3.5 mphSnowLight Snow Showers
4:00 AM21.2 °F17.6 °F86 %30.05 in15.0 miSW (220°)3.5 mphSnowLight Snow Showers
5:00 AM21.2 °F17.6 °F86 %30.04 in4.0 miWest (260°)5.8 mphSnowLight Snow Showers
6:00 AM21.2 °F17.6 °F86 %30.04 in1.5 miWest (280°)4.6 mphSnowLight Snow Showers
6:46 AM19.4 °F17.6 °F93 %30.04 in1.0 miWest (270°)9.2 mphSnowLight Snow Showers
7:00 AM19.4 °F17.6 °F93 %30.04 in1.0 miWest (270°)8.1 mphSnowLight Snow Showers
7:18 AM19.4 °F15.8 °F86 %30.04 in2.0 miWest (280°)8.1 mphSnowLight Snow Showers
7:44 AM19.4 °F15.8 °F86 %30.04 in5.0 miWest (280°)6.9 mphSnowLight Snow Showers
8:00 AM19.4 °F15.8 °F86 %30.04 in6.0 miWNW (290°)3.5 mphSnowLight Snow Showers
8:37 AM19.4 °F14.0 °F80 %30.05 in15.0 miWest (280°)6.9 mphMostly Cloudy
9:00 AM19.4 °F12.2 °F74 %30.05 in15.0 miWest (270°)8.1 mphScattered Clouds
10:00 AM21.2 °F12.2 °F68 %30.05 in15.0 miWNW (290°)9.2 mphScattered Clouds
11:00 AM21.2 °F8.6 °F58 %30.04 in15.0 miWest (280°)8.1 mphPartly Cloudy
12:00 PM23.0 °F8.6 °F54 %30.04 in15.0 miWest (270°)11.5 mphPartly Cloudy
1:00 PM23.0 °F10.0 °F42 %30.01 in15.0 miWNW (290°)10.4 mph
1:00 PM23.0 °F10.4 °F59 %30.01 in15.0 miWest (280°)11.5 mphMostly Cloudy
2:00 PM23.0 °F5.0 °F46 %30.00 in15.0 miWest (270°)15.0 mphMostly Cloudy
3:00 PM23.0 °F6.8 °F50 %29.99 in15.0 miWSW (250°)13.8 mphScattered Clouds
4:00 PM23.0 °F8.6 °F54 %29.99 in15.0 miNNW (330°)8.1 mphPartly Cloudy
5:00 PM21.2 °F10.4 °F63 %30.00 in15.0 miNNW (340°)5.8 mphScattered Clouds
6:00 PM19.4 °F10.4 °F68 %30.02 in15.0 miNNE (20°)4.6 mphPartly Cloudy
7:00 PM16.0 °F10.0 °F65 %30.03 in15.0 miCalm
7:00 PM15.8 °F10.4 °F79 %30.03 in15.0 miCalmScattered Clouds
8:00 PM14.0 °F8.6 °F79 %30.03 in15.0 miNorth (360°)4.6 mphPartly Cloudy
9:00 PM10.4 °F6.8 °F85 %30.03 in15.0 miNorth (350°)4.6 mphScattered Clouds
10:00 PM10.4 °F6.8 °F85 %30.02 in15.0 miNorth (10°)4.6 mphPartly Cloudy
11:00 PM8.6 °F6.8 °F92 %30.01 in15.0 miNorth (350°)5.8 mphPartly Cloudy
Hourly data recorded from CYXU, located miles away from Stratford, Ontario







STORIES FROM OUR PARTNERS